Regional Weather Roundup
Issued by NWS

Home | Current Version | Previous Version | Graphics & Text | Print | Product List | Glossary On
Versions: 1 2 3 4 5 6 7 8 9 10 11 12 13 14 15 16 17 18 19 20 21 22 23 24 25 26 27 28 29 30 31 32 33 34 35 36 37 38 39 40 41 42 43 44 45 46 47 48 49 50
000
ASUS44 KMEG 240310
RWRTN
TENNESSEE HOURLY STATE WEATHER ROUNDUP
NATIONAL WEATHER SERVICE MEMPHIS TN
1000 PM CDT MON APR 23 2018

TNZ002-004-019-021-049-052-054-088>092-240400-
WEST TENNESSEE

CITY           SKY/WX    TMP DP  RH WIND       PRES   REMARKS
MEMPHIS INTL   CLOUDY    55  54  96 NW5       29.93S
NWS MEMPHIS      N/A     54 N/A N/A MISG        N/A
JACKSON        CLOUDY    57  57 100 CALM      29.93R
DYERSBURG      MOCLDY    54  54 100 CALM      29.94R FOG
SOMERVILLE       N/A     55  55 100 NW5       29.92R FOG
COVINGTON      CLOUDY    55  55 100 CALM      29.94R
UNION CITY     MOCLDY    55  55 100 CALM      29.93R
BOLIVAR        CLOUDY    57  55  94 CALM      29.92R FOG
PARIS          FOG       54  54 100 CALM      29.93R VSB 0
HUNTINGDON     CLOUDY    57  55  94 CALM      29.92R
LEXINGTON      CLOUDY    57  55  94 CALM      29.92S
SELMER         CLOUDY    57  57 100 CALM      29.92S
SAVANNAH       CLOUDY    57  57 100 CALM      29.92S FOG
$$

TNZ008-025-027-028-033-062-065-066-240400-
NORTH MIDDLE TENNESSEE

CITY           SKY/WX    TMP DP  RH WIND       PRES   REMARKS
NASHVILLE      CLOUDY    59  55  87 CALM      29.92S
PORTLAND       CLOUDY    55  55 100 CALM      29.92S
CLARKSVILLE    FAIR      55  52  89 NE3       29.93R
SMYRNA         LGT RAIN  57  56  96 N3        29.93R
COOKEVILLE     CLOUDY    55  55 100 CALM      29.91S
LIVINGSTON     CLOUDY    54  54 100 NE5       29.93S FOG
GALLATIN       MOCLDY    57  55  94 CALM      29.95S
CROSSVILLE     RAIN      53  52  96 E6        29.94F FOG
ROCKWOOD       CLOUDY    54  54 100 E8G15     29.92S FOG
$$

TNZ061-075-076-078-094-096-097-240400-
SOUTH MIDDLE TENNESSEE

CITY           SKY/WX    TMP DP  RH WIND       PRES   REMARKS
LEWISBURG      CLOUDY    59  57  94 N3        29.91S
FAYETTEVILLE   CLOUDY    57  57 100 CALM      29.90S
TULLAHOMA      CLOUDY    57  55  94 CALM      29.90S
WINCHESTER     CLOUDY    57  55  94 CALM      29.90S
MCMINNVILLE    CLOUDY    55  55 100 CALM      29.92R
COLUMBIA       CLOUDY    57  57 100 CALM      29.91R
SHELBYVILLE    CLOUDY    57  57 100 CALM      29.91R
$$

TNZ017-018-042-046-047-240400-
NORTHEAST TENNESSEE

CITY           SKY/WX    TMP DP  RH WIND       PRES   REMARKS
TRI CITIES     MOCLDY    59  47  64 E10       30.04S
ELIZABETHTON   CLOUDY    57  46  67 E18G40    30.03S
$$

TNZ012-013-036-069-073-074-240400-
CENTRAL EAST TENNESSEE

CITY           SKY/WX    TMP DP  RH WIND       PRES   REMARKS
KNOXVILLE      LGT RAIN  57  55  93 NE12      29.89F
OAK RIDGE      CLOUDY    57  56  96 CALM      29.94S
DOWNTOWN KNOXV MOCLDY    57  55  94 VRB5G13   29.92F
GATLINBURG     MOCLDY    63  50  63 E7        29.93S
MORRISTOWN     CLOUDY    57  52  82 E10       29.96S
JACKSBORO      CLOUDY    55  54  94 CALM      29.99S
$$

TNZ083-085-099-240400-
SOUTHEAST TENNESSEE

CITY           SKY/WX    TMP DP  RH WIND       PRES   REMARKS
CHATTANOOGA    RAIN      57  55  93 CALM      29.92R FOG
DAYTON         MOCLDY    57  57 100 VRB3      29.91S FOG
$$

SKY/WX REPORTED AS FAIR MEANS FEW OR NO CLOUDS BELOW
12 THOUSAND FEET.





USA.gov is the U.S. government's official web portal to all federal, state and local government web resources and services.